Year,Month,Day,Hour,Minute,Value (Times are PST for windgust in km/hr)
2012,01,22,00,00,8.10
2012,01,22,00,01,6.40
2012,01,22,00,03,3.20
2012,01,22,00,04,8.10
2012,01,22,00,05,1.60
2012,01,22,00,06,1.60
2012,01,22,00,07,1.60
2012,01,22,00,08,3.20
2012,01,22,00,09,3.20
2012,01,22,00,10,6.40
2012,01,22,00,11,9.60
2012,01,22,00,12,6.40
2012,01,22,00,13,8.10
2012,01,22,00,14,8.10
2012,01,22,00,15,9.60
2012,01,22,00,16,8.10
2012,01,22,00,17,6.40
2012,01,22,00,18,6.40
2012,01,22,00,19,1.60
2012,01,22,00,20,3.20
2012,01,22,00,21,8.10
2012,01,22,00,22,9.60
2012,01,22,00,23,3.20
2012,01,22,00,24,3.20
2012,01,22,00,27,1.60
2012,01,22,00,29,6.40
2012,01,22,00,30,9.60
2012,01,22,00,31,6.40
2012,01,22,00,32,1.60
2012,01,22,00,33,6.40
2012,01,22,00,34,3.20
2012,01,22,00,35,11.30
2012,01,22,00,36,9.60
2012,01,22,00,37,6.40
2012,01,22,00,38,3.20
2012,01,22,00,39,1.60
2012,01,22,00,40,3.20
2012,01,22,00,41,1.60
2012,01,22,00,42,1.60
2012,01,22,00,43,3.20
2012,01,22,00,46,1.60
2012,01,22,00,47,1.60
2012,01,22,00,48,6.40
2012,01,22,00,49,9.60
2012,01,22,00,50,3.20
2012,01,22,00,52,8.10
2012,01,22,00,53,8.10
2012,01,22,00,54,6.40
2012,01,22,00,55,3.20
2012,01,22,00,56,1.60
2012,01,22,00,57,8.10
2012,01,22,00,58,6.40
2012,01,22,00,59,3.20
2012,01,22,01,00,1.60
2012,01,22,01,01,3.20
2012,01,22,01,02,6.40
2012,01,22,01,03,8.10
2012,01,22,01,05,11.30
2012,01,22,01,06,6.40
2012,01,22,01,07,6.40
2012,01,22,01,08,6.40
2012,01,22,01,09,6.40
2012,01,22,01,10,9.60
2012,01,22,01,11,11.30
2012,01,22,01,12,8.10
2012,01,22,01,13,3.20
2012,01,22,01,14,11.30
2012,01,22,01,15,11.30
2012,01,22,01,16,9.60
2012,01,22,01,17,11.30
2012,01,22,01,18,12.90
2012,01,22,01,19,6.40
2012,01,22,01,20,14.50
2012,01,22,01,21,16.10
2012,01,22,01,22,11.30
2012,01,22,01,23,9.60
2012,01,22,01,24,8.10
2012,01,22,01,25,6.40
2012,01,22,01,26,3.20
2012,01,22,01,29,6.40
2012,01,22,01,30,11.30
2012,01,22,01,31,6.40
2012,01,22,01,32,11.30
2012,01,22,01,33,14.50
2012,01,22,01,34,9.60
2012,01,22,01,35,6.40
2012,01,22,01,36,1.60
2012,01,22,01,37,17.70
2012,01,22,01,38,8.10
2012,01,22,01,39,9.60
2012,01,22,01,40,3.20
2012,01,22,01,41,11.30
2012,01,22,01,42,20.90
2012,01,22,01,43,8.10
2012,01,22,01,44,9.60
2012,01,22,01,45,11.30
2012,01,22,01,46,9.60
2012,01,22,01,47,9.60
2012,01,22,01,48,9.60
2012,01,22,01,49,8.10
2012,01,22,01,50,11.30
2012,01,22,01,51,6.40
2012,01,22,01,52,11.30
2012,01,22,01,53,9.60
2012,01,22,01,54,30.60
2012,01,22,01,55,14.50
2012,01,22,01,56,8.10
2012,01,22,01,57,6.40
2012,01,22,01,58,1.60
2012,01,22,01,59,9.60
2012,01,22,02,00,11.30
2012,01,22,02,01,14.50
2012,01,22,02,02,11.30
2012,01,22,02,03,16.10
2012,01,22,02,04,11.30
2012,01,22,02,05,3.20
2012,01,22,02,06,12.90
2012,01,22,02,07,9.60
2012,01,22,02,08,9.60
2012,01,22,02,09,12.90
2012,01,22,02,10,8.10
2012,01,22,02,11,14.50
2012,01,22,02,12,12.90
2012,01,22,02,13,3.20
2012,01,22,02,14,11.30
2012,01,22,02,15,14.50
2012,01,22,02,16,11.30
2012,01,22,02,17,11.30
2012,01,22,02,18,9.60
2012,01,22,02,19,9.60
2012,01,22,02,20,11.30
2012,01,22,02,21,30.60
2012,01,22,02,22,12.90
2012,01,22,02,23,9.60
2012,01,22,02,24,16.10
2012,01,22,02,25,14.50
2012,01,22,02,26,11.30
2012,01,22,02,27,11.30
2012,01,22,02,28,11.30
2012,01,22,02,29,6.40
2012,01,22,02,30,8.10
2012,01,22,02,31,16.10
2012,01,22,02,32,11.30
2012,01,22,02,33,6.40
2012,01,22,02,34,3.20
2012,01,22,02,35,11.30
2012,01,22,02,36,9.60
2012,01,22,02,37,3.20
2012,01,22,02,38,3.20
2012,01,22,02,39,14.50
2012,01,22,02,40,8.10
2012,01,22,02,41,4.80
2012,01,22,02,42,6.40
2012,01,22,02,43,6.40
2012,01,22,02,44,8.10
2012,01,22,02,45,8.10
2012,01,22,02,46,9.60
2012,01,22,02,47,6.40
2012,01,22,02,48,8.10
2012,01,22,02,49,6.40
2012,01,22,02,50,8.10
2012,01,22,02,51,11.30
2012,01,22,02,52,9.60
2012,01,22,02,53,9.60
2012,01,22,02,54,17.70
2012,01,22,02,55,14.50
2012,01,22,02,56,12.90
2012,01,22,02,57,14.50
2012,01,22,02,58,6.40
2012,01,22,02,59,8.10
2012,01,22,03,00,8.10
2012,01,22,03,01,9.60
2012,01,22,03,02,12.90
2012,01,22,03,03,12.90
2012,01,22,03,04,6.40
2012,01,22,03,05,11.30
2012,01,22,03,06,8.10
2012,01,22,03,07,9.60
2012,01,22,03,08,8.10
2012,01,22,03,09,4.80
2012,01,22,03,10,11.30
2012,01,22,03,11,11.30
2012,01,22,03,12,8.10
2012,01,22,03,13,14.50
2012,01,22,03,14,11.30
2012,01,22,03,15,6.40
2012,01,22,03,16,9.60
2012,01,22,03,17,14.50
2012,01,22,03,18,12.90
2012,01,22,03,19,17.70
2012,01,22,03,20,6.40
2012,01,22,03,21,4.80
2012,01,22,03,23,9.60
2012,01,22,03,24,16.10
2012,01,22,03,25,6.40
2012,01,22,03,26,1.60
2012,01,22,03,27,6.40
2012,01,22,03,28,9.60
2012,01,22,03,29,8.10
2012,01,22,03,30,6.40
2012,01,22,03,31,6.40
2012,01,22,03,32,12.90
2012,01,22,03,33,17.70
2012,01,22,03,34,4.80
2012,01,22,03,37,1.60
2012,01,22,03,38,4.80
2012,01,22,03,39,19.30
2012,01,22,03,40,16.10
2012,01,22,03,41,11.30
2012,01,22,03,42,6.40
2012,01,22,03,43,9.60
2012,01,22,03,44,8.10
2012,01,22,03,45,16.10
2012,01,22,03,46,9.60
2012,01,22,03,47,8.10
2012,01,22,03,48,3.20
2012,01,22,03,49,11.30
2012,01,22,03,50,8.10
2012,01,22,03,51,14.50
2012,01,22,03,52,3.20
2012,01,22,03,53,24.20
2012,01,22,03,54,20.90
2012,01,22,03,55,6.40
2012,01,22,03,56,11.30
2012,01,22,03,57,6.40
2012,01,22,03,58,1.60
2012,01,22,03,59,9.60
2012,01,22,04,00,11.30
2012,01,22,04,01,9.60
2012,01,22,04,02,11.30
2012,01,22,04,03,8.10
2012,01,22,04,04,17.70
2012,01,22,04,05,27.40
2012,01,22,04,06,8.10
2012,01,22,04,07,6.40
2012,01,22,04,08,8.10
2012,01,22,04,09,29.00
2012,01,22,04,10,20.90
2012,01,22,04,11,14.50
2012,01,22,04,12,11.30
2012,01,22,04,13,19.30
2012,01,22,04,14,11.30
2012,01,22,04,15,11.30
2012,01,22,04,16,30.60
2012,01,22,04,17,8.10
2012,01,22,04,18,19.30
2012,01,22,04,19,14.50
2012,01,22,04,20,11.30
2012,01,22,04,21,11.30
2012,01,22,04,22,9.60
2012,01,22,04,23,3.20
2012,01,22,04,24,4.80
2012,01,22,04,25,8.10
2012,01,22,04,26,3.20
2012,01,22,04,27,3.20
2012,01,22,04,28,6.40
2012,01,22,04,29,3.20
2012,01,22,04,30,12.90
2012,01,22,04,31,12.90
2012,01,22,04,32,6.40
2012,01,22,04,33,6.40
2012,01,22,04,34,8.10
2012,01,22,04,35,8.10
2012,01,22,04,36,17.70
2012,01,22,04,37,11.30
2012,01,22,04,38,12.90
2012,01,22,04,39,6.40
2012,01,22,04,40,3.20
2012,01,22,04,41,6.40
2012,01,22,04,42,4.80
2012,01,22,04,43,4.80
2012,01,22,04,44,4.80
2012,01,22,04,45,14.50
2012,01,22,04,46,12.90
2012,01,22,04,47,3.20
2012,01,22,04,48,1.60
2012,01,22,04,49,4.80
2012,01,22,04,50,3.20
2012,01,22,04,51,3.20
2012,01,22,04,52,3.20
2012,01,22,04,53,1.60
2012,01,22,04,54,6.40
2012,01,22,04,55,11.30
2012,01,22,04,56,6.40
2012,01,22,04,57,6.40
2012,01,22,04,58,1.60
2012,01,22,04,59,9.60
2012,01,22,05,00,9.60
2012,01,22,05,01,6.40
2012,01,22,05,02,3.20
2012,01,22,05,03,20.90
2012,01,22,05,04,17.70
2012,01,22,05,05,14.50
2012,01,22,05,06,6.40
2012,01,22,05,07,16.10
2012,01,22,05,08,14.50
2012,01,22,05,09,4.80
2012,01,22,05,10,3.20
2012,01,22,05,11,6.40
2012,01,22,05,12,1.60
2012,01,22,05,13,4.80
2012,01,22,05,14,8.10
2012,01,22,05,15,3.20
2012,01,22,05,16,1.60
2012,01,22,05,17,1.60
2012,01,22,05,18,6.40
2012,01,22,05,19,9.60
2012,01,22,05,20,12.90
2012,01,22,05,21,14.50
2012,01,22,05,22,9.60
2012,01,22,05,23,17.70
2012,01,22,05,24,9.60
2012,01,22,05,25,12.90
2012,01,22,05,26,4.80
2012,01,22,05,27,1.60
2012,01,22,05,28,6.40
2012,01,22,05,29,9.60
2012,01,22,05,30,9.60
2012,01,22,05,31,14.50
2012,01,22,05,32,9.60
2012,01,22,05,33,3.20
2012,01,22,05,34,9.60
2012,01,22,05,35,19.30
2012,01,22,05,36,6.40
2012,01,22,05,37,4.80
2012,01,22,05,38,9.60
2012,01,22,05,39,14.50
2012,01,22,05,40,8.10
2012,01,22,05,41,16.10
2012,01,22,05,42,12.90
2012,01,22,05,43,9.60
2012,01,22,05,44,12.90
2012,01,22,05,45,12.90
2012,01,22,05,46,11.30
2012,01,22,05,47,9.60
2012,01,22,05,48,6.40
2012,01,22,05,49,9.60
2012,01,22,05,50,9.60
2012,01,22,05,51,11.30
2012,01,22,05,52,9.60
2012,01,22,05,53,9.60
2012,01,22,05,54,12.90
2012,01,22,05,55,9.60
2012,01,22,05,56,11.30
2012,01,22,05,57,12.90
2012,01,22,05,58,11.30
2012,01,22,05,59,8.10
2012,01,22,06,00,8.10
2012,01,22,06,01,9.60
2012,01,22,06,02,6.40
2012,01,22,06,03,16.10
2012,01,22,06,04,12.90
2012,01,22,06,05,9.60
2012,01,22,06,06,9.60
2012,01,22,06,07,16.10
2012,01,22,06,08,19.30
2012,01,22,06,09,16.10
2012,01,22,06,10,6.40
2012,01,22,06,11,22.50
2012,01,22,06,12,22.50
2012,01,22,06,13,8.10
2012,01,22,06,14,11.30
2012,01,22,06,15,9.60
2012,01,22,06,16,6.40
2012,01,22,06,17,17.70
2012,01,22,06,18,9.60
2012,01,22,06,19,11.30
2012,01,22,06,20,16.10
2012,01,22,06,21,16.10
2012,01,22,06,22,8.10
2012,01,22,06,23,6.40
2012,01,22,06,24,3.20
2012,01,22,06,25,9.60
2012,01,22,06,26,33.80
2012,01,22,06,27,16.10
2012,01,22,06,28,8.10
2012,01,22,06,29,8.10
2012,01,22,06,30,4.80
2012,01,22,06,31,9.60
2012,01,22,06,32,14.50
2012,01,22,06,33,11.30
2012,01,22,06,34,19.30
2012,01,22,06,35,11.30
2012,01,22,06,36,9.60
2012,01,22,06,37,12.90
2012,01,22,06,38,9.60
2012,01,22,06,39,19.30
2012,01,22,06,40,11.30
2012,01,22,06,41,9.60
2012,01,22,06,42,12.90
2012,01,22,06,43,22.50
2012,01,22,06,44,9.60
2012,01,22,06,45,6.40
2012,01,22,06,46,29.00
2012,01,22,06,47,12.90
2012,01,22,06,48,20.90
2012,01,22,06,49,11.30
2012,01,22,06,50,16.10
2012,01,22,06,51,16.10
2012,01,22,06,52,11.30
2012,01,22,06,53,12.90
2012,01,22,06,54,16.10
2012,01,22,06,55,11.30
2012,01,22,06,56,9.60
2012,01,22,06,57,6.40
2012,01,22,06,58,11.30
2012,01,22,06,59,8.10
2012,01,22,07,00,20.90
2012,01,22,07,01,11.30
2012,01,22,07,02,8.10
2012,01,22,07,03,6.40
2012,01,22,07,04,4.80
2012,01,22,07,05,6.40
2012,01,22,07,06,6.40
2012,01,22,07,07,11.30
2012,01,22,07,08,3.20
2012,01,22,07,09,6.40
2012,01,22,07,10,3.20
2012,01,22,07,11,4.80
2012,01,22,07,12,12.90
2012,01,22,07,13,8.10
2012,01,22,07,14,14.50
2012,01,22,07,15,3.20
2012,01,22,07,16,6.40
2012,01,22,07,17,4.80
2012,01,22,07,18,6.40
2012,01,22,07,19,9.60
2012,01,22,07,20,11.30
2012,01,22,07,21,12.90
2012,01,22,07,22,12.90
2012,01,22,07,23,6.40
2012,01,22,07,24,24.20
2012,01,22,07,25,6.40
2012,01,22,07,26,9.60
2012,01,22,07,27,9.60
2012,01,22,07,28,8.10
2012,01,22,07,29,4.80
2012,01,22,07,30,14.50
2012,01,22,07,31,17.70
2012,01,22,07,32,6.40
2012,01,22,07,33,6.40
2012,01,22,07,34,6.40
2012,01,22,07,35,16.10
2012,01,22,07,36,16.10
2012,01,22,07,37,8.10
2012,01,22,07,38,16.10
2012,01,22,07,39,6.40
2012,01,22,07,40,4.80
2012,01,22,07,41,8.10
2012,01,22,07,42,4.80
2012,01,22,07,43,8.10
2012,01,22,07,44,9.60
2012,01,22,07,45,8.10
2012,01,22,07,46,9.60
2012,01,22,07,47,6.40
2012,01,22,07,48,4.80
2012,01,22,07,49,6.40
2012,01,22,07,50,3.20
2012,01,22,07,51,8.10
2012,01,22,07,52,6.40
2012,01,22,07,53,4.80
2012,01,22,07,54,3.20
2012,01,22,07,55,4.80
2012,01,22,07,56,6.40
2012,01,22,07,57,6.40
2012,01,22,07,58,3.20
2012,01,22,07,59,1.60
2012,01,22,08,00,11.30
2012,01,22,08,01,11.30
2012,01,22,08,02,12.90
2012,01,22,08,03,8.10
2012,01,22,08,04,6.40
2012,01,22,08,05,8.10
2012,01,22,08,06,6.40
2012,01,22,08,07,6.40
2012,01,22,08,08,4.80
2012,01,22,08,09,6.40
2012,01,22,08,10,4.80
2012,01,22,08,11,3.20
2012,01,22,08,12,3.20
2012,01,22,08,13,3.20
2012,01,22,08,14,3.20
2012,01,22,08,15,9.60
2012,01,22,08,16,9.60
2012,01,22,08,17,4.80
2012,01,22,08,18,6.40
2012,01,22,08,19,6.40
2012,01,22,08,20,8.10
2012,01,22,08,21,1.60
2012,01,22,08,22,1.60
2012,01,22,08,23,1.60
2012,01,22,08,24,4.80
2012,01,22,08,25,8.10
2012,01,22,08,26,9.60
2012,01,22,08,27,4.80
2012,01,22,08,28,4.80
2012,01,22,08,29,3.20
2012,01,22,08,30,1.60
2012,01,22,08,31,1.60
2012,01,22,08,32,8.10
2012,01,22,08,33,6.40
2012,01,22,08,34,6.40
2012,01,22,08,35,3.20
2012,01,22,08,36,3.20
2012,01,22,08,37,8.10
2012,01,22,08,38,9.60
2012,01,22,08,39,6.40
2012,01,22,08,40,8.10
2012,01,22,08,41,8.10
2012,01,22,08,42,8.10
2012,01,22,08,43,12.90
2012,01,22,08,44,8.10
2012,01,22,08,45,4.80
2012,01,22,08,46,3.20
2012,01,22,08,47,4.80
2012,01,22,08,48,6.40
2012,01,22,08,49,4.80
2012,01,22,08,50,3.20
2012,01,22,08,51,1.60
2012,01,22,08,52,4.80
2012,01,22,08,53,4.80
2012,01,22,08,54,8.10
2012,01,22,08,55,8.10
2012,01,22,08,57,9.60
2012,01,22,08,58,8.10
2012,01,22,08,59,6.40
2012,01,22,09,00,8.10
2012,01,22,09,01,9.60
2012,01,22,09,02,6.40
2012,01,22,09,03,3.20
2012,01,22,09,04,6.40
2012,01,22,09,05,9.60
2012,01,22,09,06,8.10
2012,01,22,09,07,6.40
2012,01,22,09,08,4.80
2012,01,22,09,09,1.60
2012,01,22,09,10,6.40
2012,01,22,09,11,8.10
2012,01,22,09,12,4.80
2012,01,22,09,13,3.20
2012,01,22,09,14,1.60
2012,01,22,09,15,4.80
2012,01,22,09,16,3.20
2012,01,22,09,17,6.40
2012,01,22,09,18,6.40
2012,01,22,09,19,8.10
2012,01,22,09,20,6.40
2012,01,22,09,21,3.20
2012,01,22,09,22,3.20
2012,01,22,09,25,3.20
2012,01,22,09,26,6.40
2012,01,22,09,27,6.40
2012,01,22,09,28,3.20
2012,01,22,09,30,1.60
2012,01,22,09,31,1.60
2012,01,22,09,32,6.40
2012,01,22,09,33,6.40
2012,01,22,09,34,9.60
2012,01,22,09,35,3.20
2012,01,22,09,36,4.80
2012,01,22,09,37,8.10
2012,01,22,09,38,3.20
2012,01,22,09,39,3.20
2012,01,22,09,40,6.40
2012,01,22,09,41,8.10
2012,01,22,09,42,3.20
2012,01,22,09,43,4.80
2012,01,22,09,44,3.20
2012,01,22,09,45,4.80
2012,01,22,09,46,4.80
2012,01,22,09,47,6.40
2012,01,22,09,48,4.80
2012,01,22,09,49,8.10
2012,01,22,09,50,8.10
2012,01,22,09,51,4.80
2012,01,22,09,52,1.60
2012,01,22,09,53,4.80
2012,01,22,09,54,1.60
2012,01,22,09,55,3.20
2012,01,22,09,56,3.20
2012,01,22,09,57,3.20
2012,01,22,09,58,3.20
2012,01,22,09,59,8.10
2012,01,22,10,00,8.10
2012,01,22,10,01,8.10
2012,01,22,10,02,6.40
2012,01,22,10,06,3.20
2012,01,22,10,07,11.30
2012,01,22,10,08,11.30
2012,01,22,10,09,6.40
2012,01,22,10,10,8.10
2012,01,22,10,11,9.60
2012,01,22,10,12,8.10
2012,01,22,10,13,8.10
2012,01,22,10,14,12.90
2012,01,22,10,15,8.10
2012,01,22,10,16,4.80
2012,01,22,10,17,6.40
2012,01,22,10,18,8.10
2012,01,22,10,19,4.80
2012,01,22,10,20,9.60
2012,01,22,10,21,9.60
2012,01,22,10,22,8.10
2012,01,22,10,23,8.10
2012,01,22,10,24,4.80
2012,01,22,10,25,11.30
2012,01,22,10,26,12.90
2012,01,22,10,27,6.40
2012,01,22,10,28,6.40
2012,01,22,10,29,6.40
2012,01,22,10,30,3.20
2012,01,22,10,31,9.60
2012,01,22,10,32,8.10
2012,01,22,10,33,6.40
2012,01,22,10,34,8.10
2012,01,22,10,35,4.80
2012,01,22,10,36,6.40
2012,01,22,10,37,8.10
2012,01,22,10,38,19.30
2012,01,22,10,39,4.80
2012,01,22,10,40,14.50
2012,01,22,10,41,6.40
2012,01,22,10,42,12.90
2012,01,22,10,43,11.30
2012,01,22,10,44,9.60
2012,01,22,10,45,6.40
2012,01,22,10,46,12.90
2012,01,22,10,47,8.10
2012,01,22,10,48,11.30
2012,01,22,10,49,11.30
2012,01,22,10,50,12.90
2012,01,22,10,51,12.90
2012,01,22,10,52,11.30
2012,01,22,10,53,8.10
2012,01,22,10,54,11.30
2012,01,22,10,55,3.20
2012,01,22,10,56,8.10
2012,01,22,10,57,9.60
2012,01,22,10,58,6.40
2012,01,22,10,59,4.80
2012,01,22,11,00,6.40
2012,01,22,11,01,3.20
2012,01,22,11,02,8.10
2012,01,22,11,03,9.60
2012,01,22,11,04,9.60
2012,01,22,11,05,4.80
2012,01,22,11,06,8.10
2012,01,22,11,07,4.80
2012,01,22,11,08,1.60
2012,01,22,11,09,4.80
2012,01,22,11,10,11.30
2012,01,22,11,11,8.10
2012,01,22,11,12,4.80
2012,01,22,11,13,4.80
2012,01,22,11,14,11.30
2012,01,22,11,15,8.10
2012,01,22,11,16,3.20
2012,01,22,11,17,4.80
2012,01,22,11,18,6.40
2012,01,22,11,19,6.40
2012,01,22,11,20,11.30
2012,01,22,11,21,8.10
2012,01,22,11,22,8.10
2012,01,22,11,23,11.30
2012,01,22,11,24,11.30
2012,01,22,11,25,8.10
2012,01,22,11,27,9.60
2012,01,22,11,28,4.80
2012,01,22,11,29,6.40
2012,01,22,11,30,6.40
2012,01,22,11,31,4.80
2012,01,22,11,32,8.10
2012,01,22,11,33,16.10
2012,01,22,11,34,9.60
2012,01,22,11,35,17.70
2012,01,22,11,36,8.10
2012,01,22,11,37,8.10
2012,01,22,11,38,8.10
2012,01,22,11,39,8.10
2012,01,22,11,40,4.80
2012,01,22,11,41,1.60
2012,01,22,11,42,1.60
2012,01,22,11,43,1.60
2012,01,22,11,44,1.60
2012,01,22,11,45,4.80
2012,01,22,11,46,12.90
2012,01,22,11,47,14.50
2012,01,22,11,48,17.70
2012,01,22,11,49,12.90
2012,01,22,11,50,12.90
2012,01,22,11,51,24.20
2012,01,22,11,52,20.90
2012,01,22,11,53,8.10
2012,01,22,11,54,29.00
2012,01,22,11,55,6.40
2012,01,22,11,56,11.30
2012,01,22,11,57,8.10
2012,01,22,11,58,9.60
2012,01,22,11,59,6.40
2012,01,22,12,00,11.30
2012,01,22,12,01,8.10
2012,01,22,12,02,9.60
2012,01,22,12,03,6.40
2012,01,22,12,04,9.60
2012,01,22,12,05,11.30
2012,01,22,12,06,20.90
2012,01,22,12,07,27.40
2012,01,22,12,08,9.60
2012,01,22,12,09,16.10
2012,01,22,12,10,17.70
2012,01,22,12,11,17.70
2012,01,22,12,12,6.40
2012,01,22,12,13,12.90
2012,01,22,12,14,12.90
2012,01,22,12,15,8.10
2012,01,22,12,16,6.40
2012,01,22,12,17,4.80
2012,01,22,12,18,6.40
2012,01,22,12,19,3.20
2012,01,22,12,20,6.40
2012,01,22,12,21,11.30
2012,01,22,12,22,14.50
2012,01,22,12,23,14.50
2012,01,22,12,24,8.10
2012,01,22,12,25,12.90
2012,01,22,12,26,16.10
2012,01,22,12,27,12.90
2012,01,22,12,28,9.60
2012,01,22,12,29,11.30
2012,01,22,12,30,9.60
2012,01,22,12,31,6.40
2012,01,22,12,32,19.30
2012,01,22,12,33,16.10
2012,01,22,12,34,20.90
2012,01,22,12,35,12.90
2012,01,22,12,36,11.30
2012,01,22,12,37,12.90
2012,01,22,12,38,17.70
2012,01,22,12,39,17.70
2012,01,22,12,40,6.40
2012,01,22,12,41,19.30
2012,01,22,12,42,11.30
2012,01,22,12,43,6.40
2012,01,22,12,44,11.30
2012,01,22,12,45,14.50
2012,01,22,12,46,8.10
2012,01,22,12,47,9.60
2012,01,22,12,48,20.90
2012,01,22,12,49,12.90
2012,01,22,12,50,6.40
2012,01,22,12,51,22.50
2012,01,22,12,52,19.30
2012,01,22,12,53,6.40
2012,01,22,12,54,9.60
2012,01,22,12,55,9.60
2012,01,22,12,56,4.80
2012,01,22,12,57,3.20
2012,01,22,12,58,12.90
2012,01,22,12,59,17.70
2012,01,22,13,00,14.50
2012,01,22,13,01,12.90
2012,01,22,13,02,17.70
2012,01,22,13,03,22.50
2012,01,22,13,04,25.70
2012,01,22,13,05,17.70
2012,01,22,13,06,12.90
2012,01,22,13,07,8.10
2012,01,22,13,08,9.60
2012,01,22,13,09,19.30
2012,01,22,13,10,37.00
2012,01,22,13,11,11.30
2012,01,22,13,12,37.00
2012,01,22,13,13,24.20
2012,01,22,13,14,11.30
2012,01,22,13,15,11.30
2012,01,22,13,16,8.10
2012,01,22,13,17,17.70
2012,01,22,13,18,9.60
2012,01,22,13,19,8.10
2012,01,22,13,20,20.90
2012,01,22,13,21,17.70
2012,01,22,13,22,12.90
2012,01,22,13,23,12.90
2012,01,22,13,24,11.30
2012,01,22,13,25,14.50
2012,01,22,13,26,29.00
2012,01,22,13,27,27.40
2012,01,22,13,28,11.30
2012,01,22,13,29,17.70
2012,01,22,13,30,20.90
2012,01,22,13,31,19.30
2012,01,22,13,32,22.50
2012,01,22,13,33,25.70
2012,01,22,13,34,14.50
2012,01,22,13,35,14.50
2012,01,22,13,36,22.50
2012,01,22,13,37,19.30
2012,01,22,13,38,19.30
2012,01,22,13,39,20.90
2012,01,22,13,40,12.90
2012,01,22,13,41,27.40
2012,01,22,13,42,16.10
2012,01,22,13,43,12.90
2012,01,22,13,44,14.50
2012,01,22,13,45,20.90
2012,01,22,13,46,27.40
2012,01,22,13,47,14.50
2012,01,22,13,48,33.80
2012,01,22,13,49,41.80
2012,01,22,13,50,24.20
2012,01,22,13,51,14.50
2012,01,22,13,52,27.40
2012,01,22,13,53,35.40
2012,01,22,13,54,24.20
2012,01,22,13,55,22.50
2012,01,22,13,56,17.70
2012,01,22,13,57,24.20
2012,01,22,13,58,17.70
2012,01,22,13,59,24.20
2012,01,22,14,00,24.20
2012,01,22,14,01,17.70
2012,01,22,14,02,24.20
2012,01,22,14,03,38.60
2012,01,22,14,04,27.40
2012,01,22,14,05,19.30
2012,01,22,14,06,19.30
2012,01,22,14,07,20.90
2012,01,22,14,08,35.40
2012,01,22,14,09,24.20
2012,01,22,14,10,19.30
2012,01,22,14,11,29.00
2012,01,22,14,12,30.60
2012,01,22,14,13,27.40
2012,01,22,14,14,29.00
2012,01,22,14,15,29.00
2012,01,22,14,16,40.20
2012,01,22,14,17,29.00
2012,01,22,14,18,40.20
2012,01,22,14,19,25.70
2012,01,22,14,20,53.10
2012,01,22,14,21,32.20
2012,01,22,14,22,30.60
2012,01,22,14,23,38.60
2012,01,22,14,24,14.50
2012,01,22,14,25,37.00
2012,01,22,14,26,35.40
2012,01,22,14,27,22.50
2012,01,22,14,28,30.60
2012,01,22,14,29,29.00
2012,01,22,14,30,37.00
2012,01,22,14,31,41.80
2012,01,22,14,32,20.90
2012,01,22,14,33,20.90
2012,01,22,14,34,29.00
2012,01,22,14,35,25.70
2012,01,22,14,36,33.80
2012,01,22,14,37,25.70
2012,01,22,14,38,29.00
2012,01,22,14,39,16.10
2012,01,22,14,40,32.20
2012,01,22,14,41,20.90
2012,01,22,14,42,20.90
2012,01,22,14,43,27.40
2012,01,22,14,44,33.80
2012,01,22,14,45,24.20
2012,01,22,14,46,40.20
2012,01,22,14,47,30.60
2012,01,22,14,48,16.10
2012,01,22,14,49,30.60
2012,01,22,14,50,22.50
2012,01,22,14,51,27.40
2012,01,22,14,52,24.20
2012,01,22,14,53,45.10
2012,01,22,14,54,19.30
2012,01,22,14,55,14.50
2012,01,22,14,56,24.20
2012,01,22,14,57,24.20
2012,01,22,14,58,24.20
2012,01,22,14,59,29.00
2012,01,22,15,00,35.40
2012,01,22,15,01,17.70
2012,01,22,15,02,30.60
2012,01,22,15,03,25.70
2012,01,22,15,04,22.50
2012,01,22,15,05,19.30
2012,01,22,15,06,25.70
2012,01,22,15,07,22.50
2012,01,22,15,08,41.80
2012,01,22,15,09,24.20
2012,01,22,15,10,37.00
2012,01,22,15,11,33.80
2012,01,22,15,12,30.60
2012,01,22,15,13,27.40
2012,01,22,15,14,19.30
2012,01,22,15,15,35.40
2012,01,22,15,16,38.60
2012,01,22,15,17,20.90
2012,01,22,15,18,35.40
2012,01,22,15,19,35.40
2012,01,22,15,20,27.40
2012,01,22,15,21,38.60
2012,01,22,15,22,33.80
2012,01,22,15,23,38.60
2012,01,22,15,24,37.00
2012,01,22,15,25,17.70
2012,01,22,15,26,32.20
2012,01,22,15,27,30.60
2012,01,22,15,28,46.70
2012,01,22,15,29,40.20
2012,01,22,15,30,22.50
2012,01,22,15,31,38.60
2012,01,22,15,32,35.40
2012,01,22,15,33,45.10
2012,01,22,15,34,40.20
2012,01,22,15,35,45.10
2012,01,22,15,36,22.50
2012,01,22,15,37,32.20
2012,01,22,15,38,45.10
2012,01,22,15,39,38.60
2012,01,22,15,40,30.60
2012,01,22,15,41,32.20
2012,01,22,15,42,22.50
2012,01,22,15,43,38.60
2012,01,22,15,44,35.40
2012,01,22,15,45,27.40
2012,01,22,15,46,38.60
2012,01,22,15,47,40.20
2012,01,22,15,48,33.80
2012,01,22,15,49,33.80
2012,01,22,15,50,27.40
2012,01,22,15,51,32.20
2012,01,22,15,52,25.70
2012,01,22,15,53,46.70
2012,01,22,15,54,32.20
2012,01,22,15,55,43.50
2012,01,22,15,56,19.30
2012,01,22,15,57,20.90
2012,01,22,15,58,43.50
2012,01,22,15,59,40.20
2012,01,22,16,00,35.40
2012,01,22,16,01,35.40
2012,01,22,16,02,32.20
2012,01,22,16,03,33.80
2012,01,22,16,04,19.30
2012,01,22,16,05,33.80
2012,01,22,16,06,29.00
2012,01,22,16,07,33.80
2012,01,22,16,08,17.70
2012,01,22,16,09,29.00
2012,01,22,16,10,27.40
2012,01,22,16,11,27.40
2012,01,22,16,12,20.90
2012,01,22,16,13,29.00
2012,01,22,16,14,32.20
2012,01,22,16,15,32.20
2012,01,22,16,16,33.80
2012,01,22,16,17,32.20
2012,01,22,16,18,40.20
2012,01,22,16,19,29.00
2012,01,22,16,20,32.20
2012,01,22,16,21,29.00
2012,01,22,16,22,35.40
2012,01,22,16,23,38.60
2012,01,22,16,24,30.60
2012,01,22,16,25,30.60
2012,01,22,16,26,24.20
2012,01,22,16,27,33.80
2012,01,22,16,28,41.80
2012,01,22,16,29,32.20
2012,01,22,16,30,37.00
2012,01,22,16,31,41.80
2012,01,22,16,32,49.90
2012,01,22,16,33,41.80
2012,01,22,16,34,38.60
2012,01,22,16,35,32.20
2012,01,22,16,36,38.60
2012,01,22,16,37,37.00
2012,01,22,16,38,38.60
2012,01,22,16,39,48.30
2012,01,22,16,40,43.50
2012,01,22,16,41,51.50
2012,01,22,16,42,46.70
2012,01,22,16,43,46.70
2012,01,22,16,44,51.50
2012,01,22,16,45,38.60
2012,01,22,16,46,41.80
2012,01,22,16,47,43.50
2012,01,22,16,48,45.10
2012,01,22,16,49,45.10
2012,01,22,16,50,48.30
2012,01,22,16,51,57.90
2012,01,22,16,52,56.30
2012,01,22,16,53,61.20
2012,01,22,16,54,41.80
2012,01,22,16,55,40.20
2012,01,22,16,56,43.50
2012,01,22,16,57,41.80
2012,01,22,16,58,38.60
2012,01,22,16,59,54.70
2012,01,22,17,00,51.50
2012,01,22,17,01,30.60
2012,01,22,17,02,35.40
2012,01,22,17,03,33.80
2012,01,22,17,04,38.60
2012,01,22,17,05,56.30
2012,01,22,17,06,41.80
2012,01,22,17,07,29.00
2012,01,22,17,08,40.20
2012,01,22,17,09,45.10
2012,01,22,17,10,43.50
2012,01,22,17,11,38.60
2012,01,22,17,12,40.20
2012,01,22,17,13,40.20
2012,01,22,17,14,32.20
2012,01,22,17,15,33.80
2012,01,22,17,16,37.00
2012,01,22,17,17,38.60
2012,01,22,17,18,30.60
2012,01,22,17,19,38.60
2012,01,22,17,20,38.60
2012,01,22,17,21,38.60
2012,01,22,17,22,41.80
2012,01,22,17,23,35.40
2012,01,22,17,24,29.00
2012,01,22,17,25,30.60
2012,01,22,17,26,41.80
2012,01,22,17,27,53.10
2012,01,22,17,28,38.60
2012,01,22,17,29,51.50
2012,01,22,17,30,41.80
2012,01,22,17,31,53.10
2012,01,22,17,32,53.10
2012,01,22,17,33,59.50
2012,01,22,17,34,33.80
2012,01,22,17,35,43.50
2012,01,22,17,36,40.20
2012,01,22,17,37,33.80
2012,01,22,17,38,32.20
2012,01,22,17,39,30.60
2012,01,22,17,40,35.40
2012,01,22,17,41,35.40
2012,01,22,17,42,37.00
2012,01,22,17,43,40.20
2012,01,22,17,44,51.50
2012,01,22,17,45,32.20
2012,01,22,17,46,32.20
2012,01,22,17,47,25.70
2012,01,22,17,48,45.10
2012,01,22,17,49,38.60
2012,01,22,17,50,32.20
2012,01,22,17,51,41.80
2012,01,22,17,52,45.10
2012,01,22,17,53,37.00
2012,01,22,17,54,35.40
2012,01,22,17,55,38.60
2012,01,22,17,58,29.00
2012,01,22,17,59,33.80
2012,01,22,18,00,30.60
2012,01,22,18,01,41.80
2012,01,22,18,02,67.60
2012,01,22,18,03,45.10
2012,01,22,18,04,49.90
2012,01,22,18,05,33.80